sat.trackr.live / text

‹ back to catalog

STARLINK-11313 [DTC]

NORAD 61255 · 2024-175N

PAYLOAD ACTIVE UNKNOWN

§ Identity

Operator
Country
US
Launch date
2024-09-25
Launch site
AFWTR
Launch vehicle
Mass (kg)
RCS (m²)

Purposes: comms

External: N2YO · Heavens-Above · Gunter

§ Orbital elements

Epoch: 2026-09-21T00:23:14.692992Z

Period
91.74 min
Inclination
53.1604°
Eccentricity
0.0001154
Mean motion
15.69704569 rev/d
Perigee alt
359.0 km
Apogee alt
360.5 km
Semi-major
6,737.9 km
B*
2.1993e-7
RAAN
173.4535°
Arg perigee
67.1366°
Mean anomaly
292.9774°
Rev number
11,404

§ Raw data

STARLINK-11313 [DTC]1 61255U 24175N   26264.01614228 -.00000562  00000+0  21993-6 0  99952 61255  53.1604 173.4535 0001154  67.1366 292.9774 15.69704569114040

JSON: /api/v1/satellites/61255 · /tle

For live sub-satellite position, see the globe view (requires WebGL).

§ Visibility from observer

Set your observer location to see the next 7 days of passes ≥ 10°. The values pass through the URL so the page stays shareable.

No JS? Fill the form by hand. The geolocation button needs JavaScript.